Location: Malanoce
(44.2500°N, 7.4667°E)
Time: 21:38:00
(UTC+00:00)

ISS - Pass Details

Date: 17 November 2025
Orbit: 416 x 420 km, 51.6° (Epoch: 11 December)

Event Time Altitude Azimuth Distance (km) Brightness Sun altitude
Rises 17:06:32 0° 247° (WSW) 2,364 2.1 -11.7°
Reaches altitude 10° 17:08:39 10° 251° (WSW) 1,500 0.6 -12.1°
Maximum altitude 17:11:59 60° 333° (NNW) 485 -3.4 -12.7°
Enters shadow 17:14:04 21° 49° (NE) 1,010 -2.4 -13.0°
